Hourly Weather Allende

Today, 25 November, Wednesday

Time Temperature Precipitation Wind Pressure Humidity
00:00 +24°C° 0 mm 2 mps 721 mmHg 37%
01:00 +24°C° 0 mm 2 mps 721 mmHg 36%
02:00 +24°C° 0 mm 2 mps 721 mmHg 36%
03:00 +23°C° 0 mm 2 mps 721 mmHg 36%
04:00 +23°C° 0 mm 2 mps 722 mmHg 36%
05:00 +22°C° 0 mm 3 mps 722 mmHg 36%
06:00 +24°C° 0 mm 2 mps 723 mmHg 36%
07:00 +25°C° 0 mm 2 mps 724 mmHg 35%
08:00 +26°C° 0 mm 2 mps 725 mmHg 35%
09:00 +28°C° 0 mm 2 mps 724 mmHg 32%
10:00 +29°C° 0 mm 3 mps 724 mmHg 29%
11:00 +30°C° 0 mm 3 mps 724 mmHg 25%
12:00 +30°C° 0 mm 3 mps 724 mmHg 25%
13:00 +30°C° 0 mm 2 mps 723 mmHg 25%
14:00 +30°C° 0 mm 2 mps 722 mmHg 25%
15:00 +28°C° 0 mm 2 mps 722 mmHg 30%
16:00 +25°C° 0 mm 1 mps 722 mmHg 35%
17:00 +23°C° 0 mm 1 mps 722 mmHg 40%
18:00 +22°C° 0 mm 1 mps 722 mmHg 40%
19:00 +22°C° 0 mm 1 mps 723 mmHg 40%
20:00 +22°C° 0 mm 1 mps 723 mmHg 41%
21:00 +22°C° 0 mm 1 mps 723 mmHg 42%
22:00 +22°C° 0 mm 1 mps 723 mmHg 43%
23:00 +21°C° 0 mm 1 mps 723 mmHg 44%

Tomorrow, 26 November, Thursday

Time Temperature Precipitation Wind Pressure Humidity
00:00 +21°C° 0 mm 1 mps 723 mmHg 45%
01:00 +21°C° 0 mm 1 mps 722 mmHg 45%
02:00 +21°C° 0 mm 1 mps 722 mmHg 46%
03:00 +21°C° 0 mm 1 mps 722 mmHg 48%
04:00 +20°C° 0 mm 1 mps 722 mmHg 50%
05:00 +20°C° 0 mm 1 mps 722 mmHg 53%
06:00 +22°C° 0 mm 1 mps 722 mmHg 50%
07:00 +23°C° 0 mm 1 mps 723 mmHg 47%
08:00 +25°C° 0 mm 1 mps 723 mmHg 45%
09:00 +27°C° 0 mm 1 mps 723 mmHg 43%
10:00 +28°C° 0 mm 2 mps 722 mmHg 42%
11:00 +30°C° 0 mm 2 mps 722 mmHg 40%
12:00 +31°C° 0 mm 2 mps 721 mmHg 41%
13:00 +31°C° 0 mm 2 mps 720 mmHg 41%
14:00 +32°C° 0 mm 2 mps 720 mmHg 42%
15:00 +29°C° 0 mm 2 mps 720 mmHg 50%
16:00 +27°C° 0 mm 1 mps 720 mmHg 58%
17:00 +25°C° 0 mm 1 mps 720 mmHg 66%
18:00 +25°C° 0 mm 1 mps 720 mmHg 67%
19:00 +24°C° 0 mm 1 mps 721 mmHg 68%
20:00 +24°C° 0 mm 1 mps 721 mmHg 69%
21:00 +24°C° 0 mm 1 mps 721 mmHg 68%
22:00 +24°C° 0 mm 1 mps 721 mmHg 67%
23:00 +24°C° 0 mm 1 mps 721 mmHg 67%

Day after tomorrow, 27 November, Friday

Time Temperature Precipitation Wind Pressure Humidity
00:00 +24°C° 0 mm 1 mps 721 mmHg 65%
01:00 +24°C° 0 mm 1 mps 721 mmHg 64%
02:00 +24°C° 0 mm 1 mps 720 mmHg 63%
03:00 +23°C° 0 mm 1 mps 720 mmHg 64%
04:00 +23°C° 0 mm 1 mps 721 mmHg 65%
05:00 +23°C° 0 mm 1 mps 721 mmHg 66%
06:00 +24°C° 0 mm 1 mps 721 mmHg 62%
07:00 +26°C° 0 mm 1 mps 722 mmHg 58%
08:00 +27°C° 0 mm 1 mps 722 mmHg 54%
09:00 +29°C° 0 mm 1 mps 722 mmHg 51%
10:00 +30°C° 0 mm 1 mps 722 mmHg 47%
11:00 +31°C° 0 mm 2 mps 722 mmHg 44%
12:00 +32°C° 0 mm 1 mps 721 mmHg 43%
13:00 +32°C° 0 mm 1 mps 720 mmHg 42%
14:00 +33°C° 0 mm 1 mps 720 mmHg 41%
15:00 +31°C° 0 mm 1 mps 720 mmHg 48%
16:00 +29°C° 0 mm 1 mps 720 mmHg 55%
17:00 +27°C° 0 mm 1 mps 720 mmHg 63%
18:00 +26°C° 0 mm 1 mps 720 mmHg 66%
19:00 +25°C° 0 mm 1 mps 721 mmHg 69%
20:00 +24°C° 0 mm 1 mps 721 mmHg 72%
21:00 +24°C° 0 mm 1 mps 721 mmHg 74%
22:00 +24°C° 0 mm 1 mps 721 mmHg 76%
23:00 +23°C° 0 mm 1 mps 722 mmHg 78%

28 November, Saturday

Time Temperature Precipitation Wind Pressure Humidity
00:00 +23°C° 0 mm 1 mps 721 mmHg 81%
01:00 +23°C° 0 mm 1 mps 721 mmHg 84%
02:00 +22°C° 0 mm 1 mps 721 mmHg 86%
03:00 +22°C° 0 mm 1 mps 722 mmHg 86%
04:00 +22°C° 0 mm 1 mps 722 mmHg 86%
05:00 +22°C° 0 mm 1 mps 722 mmHg 86%
06:00 +22°C° 0.1 mm 1 mps 723 mmHg 86%
07:00 +21°C° 0.1 mm 2 mps 723 mmHg 87%
08:00 +21°C° 0.1 mm 2 mps 723 mmHg 88%
09:00 +20°C° 0.1 mm 2 mps 723 mmHg 83%
10:00 +20°C° 0.1 mm 3 mps 723 mmHg 79%
11:00 +20°C° 0.1 mm 3 mps 723 mmHg 74%
12:00 +19°C° 0.1 mm 3 mps 723 mmHg 72%
13:00 +19°C° 0.1 mm 3 mps 722 mmHg 69%
14:00 +19°C° 0.1 mm 3 mps 722 mmHg 67%
15:00 +18°C° 0 mm 3 mps 722 mmHg 67%
16:00 +18°C° 0 mm 2 mps 723 mmHg 67%
17:00 +17°C° 0 mm 2 mps 723 mmHg 67%
18:00 +17°C° 0 mm 2 mps 723 mmHg 67%
19:00 +17°C° 0 mm 2 mps 724 mmHg 67%
20:00 +17°C° 0 mm 2 mps 724 mmHg 66%
21:00 +16°C° 0 mm 1 mps 724 mmHg 67%
22:00 +16°C° 0 mm 1 mps 724 mmHg 67%
23:00 +16°C° 0 mm 1 mps 724 mmHg 67%

29 November, Sunday

Time Temperature Precipitation Wind Pressure Humidity
00:00 +16°C° 0 mm 1 mps 724 mmHg 67%
01:00 +16°C° 0 mm 1 mps 724 mmHg 66%
02:00 +16°C° 0 mm 1 mps 723 mmHg 66%
03:00 +16°C° 0 mm 1 mps 723 mmHg 65%
04:00 +16°C° 0 mm 1 mps 723 mmHg 64%
05:00 +15°C° 0 mm 1 mps 723 mmHg 64%
06:00 +16°C° 0 mm 1 mps 724 mmHg 59%
07:00 +18°C° 0 mm 1 mps 724 mmHg 54%
08:00 +19°C° 0 mm 1 mps 725 mmHg 50%
09:00 +20°C° 0 mm 1 mps 725 mmHg 47%
10:00 +22°C° 0 mm 1 mps 725 mmHg 44%
11:00 +23°C° 0 mm 2 mps 725 mmHg 41%
12:00 +23°C° 0 mm 2 mps 724 mmHg 41%
13:00 +23°C° 0 mm 2 mps 724 mmHg 41%
14:00 +24°C° 0 mm 2 mps 723 mmHg 42%
15:00 +21°C° 0 mm 2 mps 723 mmHg 46%
16:00 +19°C° 0 mm 2 mps 724 mmHg 51%
17:00 +19°C° 0 mm 1 mps 724 mmHg 55%
18:00 +18°C° 0 mm 1 mps 725 mmHg 57%
19:00 +16°C° 0 mm 1 mps 726 mmHg 59%
20:00 +15°C° 0 mm 1 mps 726 mmHg 61%
21:00 +15°C° 0 mm 1 mps 727 mmHg 63%
22:00 +14°C° 0 mm 1 mps 727 mmHg 64%
23:00 +14°C° 0 mm 1 mps 727 mmHg 66%

30 November, Monday

Time Temperature Precipitation Wind Pressure Humidity
00:00 +14°C° 0 mm 1 mps 727 mmHg 66%
01:00 +13°C° 0 mm 1 mps 727 mmHg 66%
02:00 +13°C° 0 mm 1 mps 728 mmHg 66%
03:00 +13°C° 0 mm 2 mps 728 mmHg 62%
04:00 +13°C° 0 mm 2 mps 729 mmHg 59%
05:00 +13°C° 0 mm 2 mps 729 mmHg 56%
06:00 +13°C° 0 mm 2 mps 730 mmHg 53%
07:00 +13°C° 0 mm 2 mps 731 mmHg 50%
08:00 +14°C° 0 mm 2 mps 732 mmHg 47%
09:00 +14°C° 0 mm 2 mps 732 mmHg 44%
10:00 +14°C° 0 mm 3 mps 731 mmHg 41%
11:00 +16°C° 0 mm 3 mps 731 mmHg 38%
12:00 +17°C° 0 mm 3 mps 730 mmHg 37%
13:00 +17°C° 0 mm 3 mps 729 mmHg 37%
14:00 +17°C° 0 mm 2 mps 729 mmHg 36%
15:00 +16°C° 0 mm 2 mps 728 mmHg 40%
16:00 +14°C° 0 mm 2 mps 728 mmHg 44%
17:00 +12°C° 0 mm 1 mps 728 mmHg 48%
18:00 +11°C° 0 mm 1 mps 728 mmHg 49%
19:00 +11°C° 0 mm 1 mps 728 mmHg 50%
20:00 +10°C° 0 mm 1 mps 728 mmHg 51%
21:00 +10°C° 0 mm 1 mps 728 mmHg 52%
22:00 +10°C° 0 mm 1 mps 728 mmHg 52%
23:00 +10°C° 0 mm 1 mps 727 mmHg 53%
Show more